ATLAS 5 CENTAUR DEB, 49363

Orbit data source: Space-Track

ATLAS 5 CENTAUR DEB, 49363 is space debris in HEO originally from a launch on Wed, 17 Oct 2018 UTC launched from the Air Force Eastern Test Range (AFETR). Debris objects in space refer to the collection of defunct objects orbiting the Earth. Examples of debris include non-operational satellites, rocket bodies, and fragments generated from explosions, collisions, or faulty payload assembly.

Loading next visibility...
Identifier
49363, 2018-079FQ
Orbit
HEO
Country
Flag of USUS
Related business
Flag of USUnited Launch Alliance/Lockheed Martin (US)
Manufacturer
ULA Decatur
Mission
Spacecraft
Bus & Motor
Unknown
Mass
Unknown
Launch date (UTC)
2018-10-17 (8 years ago)
Launch vehicle
Unknown
Launch site
Air Force Eastern Test Range (AFETR)
Object type
Payload
Rocket body
Debris
Shape & HBR
Unknown shape, 1.1 m
Radar Cross Section
RCS unknown

Expand to show TLE details & history
Last TLE update: 3 months ago

TLE from 3 months ago
0 ATLAS 5 CENTAUR DEB
1 49363U 18079FQ  26135.06959573 -.00000072  00000-0  00000-0 0  9991
2 49363  13.0909  36.6740 4887920 329.2137   9.6703  1.83692821 31593
Epoch: 2026-05-15T01:40Z
TLE epoch observation values (Epoch: 2026-05-15T01:40:13.071Z)
Latitude
0.00002°
Longitude
138.75974°
Altitude
8,708.214 km
Speed
6.22 km/s
True Right ascension
02h 26m 28s
True Declination
0° 00' 00"
Sunlit
Object was in daylight at epoch
Visualization orbit readout
Latitude
Unknown
Longitude
Unknown
Altitude
Unknown
Speed
Unknown
Apparent Right ascension
Unknown
Apparent Declination
Unknown
Sunlit
N/A
Visualization observer readout
Local Sidereal Time
17:51:28
Azimuth
Unknown
Elevation
Unknown
Doppler factor
Unknown
Orbital elements
Apogee altitude
35,553.473 km
Perigee altitude
8,019.962 km
Semi-major axis
28,164.854 km
Eccentricity
0.48879
Inclination
13.0909°
RAAN
36.674°
Arg. of periapsis
329.2137°
True anomaly
31.2359°
Mean anomaly
9.6703°
Eccentric anomaly
18.60556°
Mean motion
0.45918 °/min
Orbital period
784.01 mins
BSTAR
0
Loading maneuver chart data...
Computing Atmospheric mass density...

Documentation

Showing up to 5 results
|